Time,TemperatureF,DewpointF,PressureIn,WindDirection,WindDirectionDegrees,WindSpeedMPH,WindSpeedGustMPH,Humidity,HourlyPrecipIn,Conditions,Clouds,dailyrainin,SoftwareType,DateUTC
2013-08-17 00:01:00,61.5,55.3,30.16,NNW,338,0.0,0.0,80,0.00,,,0.00,WUHU216HW,2013-08-17 04:01:00,
2013-08-17 00:06:00,61.3,55.1,30.16,NNW,338,0.0,0.0,80,0.00,,,0.00,WUHU216HW,2013-08-17 04:06:00,
2013-08-17 00:11:00,61.1,55.0,30.16,NNW,338,0.0,0.0,80,0.00,,,0.00,WUHU216HW,2013-08-17 04:11:00,
2013-08-17 00:17:00,61.1,55.3,30.16,NNW,338,0.0,0.0,81,0.00,,,0.00,WUHU216HW,2013-08-17 04:17:00,
2013-08-17 00:22:00,60.9,55.1,30.16,NNW,338,0.0,0.0,81,0.00,,,0.00,WUHU216HW,2013-08-17 04:22:00,
2013-08-17 00:27:00,60.9,55.1,30.16,NNW,338,0.0,0.0,81,0.00,,,0.00,WUHU216HW,2013-08-17 04:27:00,
2013-08-17 00:33:00,60.6,54.8,30.16,NNW,338,0.0,0.0,81,0.00,,,0.00,WUHU216HW,2013-08-17 04:33:00,
2013-08-17 00:38:00,60.6,54.8,30.16,NNW,338,0.0,0.0,81,0.00,,,0.00,WUHU216HW,2013-08-17 04:38:00,
2013-08-17 00:44:00,60.4,54.6,30.16,NNW,338,0.0,0.0,81,0.00,,,0.00,WUHU216HW,2013-08-17 04:44:00,
2013-08-17 00:49:00,60.4,54.6,30.16,NNW,338,0.0,0.0,81,0.00,,,0.00,WUHU216HW,2013-08-17 04:49:00,
2013-08-17 00:55:00,60.4,54.6,30.16,NNW,338,0.0,0.0,81,0.00,,,0.00,WUHU216HW,2013-08-17 04:55:00,
2013-08-17 01:00:00,60.0,54.6,30.16,NNW,338,0.0,0.0,82,0.00,,,0.00,WUHU216HW,2013-08-17 05:00:00,
2013-08-17 01:05:00,60.0,54.6,30.16,NNW,338,0.0,0.0,82,0.00,,,0.00,WUHU216HW,2013-08-17 05:05:00,
2013-08-17 01:10:00,60.0,54.6,30.16,NNW,338,0.0,0.0,82,0.00,,,0.00,WUHU216HW,2013-08-17 05:10:00,
2013-08-17 01:16:00,60.0,54.6,30.16,NNW,338,0.0,0.0,82,0.00,,,0.00,WUHU216HW,2013-08-17 05:16:00,
2013-08-17 01:21:00,59.9,54.4,30.16,NNW,338,0.0,0.0,82,0.00,,,0.00,WUHU216HW,2013-08-17 05:21:00,
2013-08-17 01:26:00,59.9,54.4,30.16,NNW,338,0.0,0.0,82,0.00,,,0.00,WUHU216HW,2013-08-17 05:26:00,
2013-08-17 01:32:00,59.7,54.5,30.17,NNW,338,0.0,0.0,83,0.00,,,0.00,WUHU216HW,2013-08-17 05:32:00,
2013-08-17 01:37:00,59.5,54.3,30.16,NNW,338,0.0,0.0,83,0.00,,,0.00,WUHU216HW,2013-08-17 05:37:00,
2013-08-17 01:42:00,59.5,54.3,30.17,NNW,338,0.0,0.0,83,0.00,,,0.00,WUHU216HW,2013-08-17 05:42:00,
2013-08-17 01:47:00,59.3,54.2,30.17,NNW,338,0.0,0.0,83,0.00,,,0.00,WUHU216HW,2013-08-17 05:47:00,
2013-08-17 01:53:00,59.3,54.2,30.17,NNW,338,0.0,0.0,83,0.00,,,0.00,WUHU216HW,2013-08-17 05:53:00,
2013-08-17 01:58:00,59.1,54.0,30.17,NNW,338,0.0,0.0,83,0.00,,,0.00,WUHU216HW,2013-08-17 05:58:00,
2013-08-17 02:04:00,59.0,53.8,30.17,NNW,338,0.0,0.0,83,0.00,,,0.00,WUHU216HW,2013-08-17 06:04:00,
2013-08-17 02:10:00,58.8,53.6,30.17,NNW,338,0.0,0.0,83,0.00,,,0.00,WUHU216HW,2013-08-17 06:10:00,
2013-08-17 02:15:00,58.8,53.6,30.16,NNW,338,0.0,0.0,83,0.00,,,0.00,WUHU216HW,2013-08-17 06:15:00,
2013-08-17 02:20:00,58.8,53.6,30.16,NNW,338,0.0,0.0,83,0.00,,,0.00,WUHU216HW,2013-08-17 06:20:00,
2013-08-17 02:25:00,58.8,53.6,30.16,NNW,338,0.0,0.0,83,0.00,,,0.00,WUHU216HW,2013-08-17 06:25:00,
2013-08-17 02:30:00,58.8,53.9,30.16,NNW,338,0.0,0.0,84,0.00,,,0.00,WUHU216HW,2013-08-17 06:30:00,
2013-08-17 02:36:00,58.6,53.8,30.16,NNW,338,0.0,0.0,84,0.00,,,0.00,WUHU216HW,2013-08-17 06:36:00,
2013-08-17 02:42:00,58.4,53.6,30.16,NNW,338,0.0,0.0,84,0.00,,,0.00,WUHU216HW,2013-08-17 06:42:00,
2013-08-17 02:47:00,58.2,53.4,30.16,NNW,338,0.0,0.0,84,0.00,,,0.00,WUHU216HW,2013-08-17 06:47:00,
2013-08-17 02:53:00,58.2,53.4,30.16,NNW,338,0.0,0.0,84,0.00,,,0.00,WUHU216HW,2013-08-17 06:53:00,
2013-08-17 02:58:00,58.1,53.2,30.16,NNW,338,0.0,0.0,84,0.00,,,0.00,WUHU216HW,2013-08-17 06:58:00,
2013-08-17 03:03:00,58.1,53.2,30.16,NNW,338,0.0,0.0,84,0.00,,,0.00,WUHU216HW,2013-08-17 07:03:00,
2013-08-17 03:09:00,57.9,53.4,30.16,NNW,338,0.0,0.0,85,0.00,,,0.00,WUHU216HW,2013-08-17 07:09:00,
2013-08-17 03:14:00,57.9,53.0,30.16,NNW,338,0.0,0.0,84,0.00,,,0.00,WUHU216HW,2013-08-17 07:14:00,
2013-08-17 03:19:00,57.7,53.2,30.17,NNW,338,0.0,0.0,85,0.00,,,0.00,WUHU216HW,2013-08-17 07:19:00,
2013-08-17 03:24:00,57.7,53.2,30.17,NNW,338,0.0,0.0,85,0.00,,,0.00,WUHU216HW,2013-08-17 07:24:00,
2013-08-17 03:30:00,57.5,53.0,30.17,NNW,338,0.0,0.0,85,0.00,,,0.00,WUHU216HW,2013-08-17 07:30:00,
2013-08-17 03:35:00,57.5,53.0,30.17,NNW,338,0.0,0.0,85,0.00,,,0.00,WUHU216HW,2013-08-17 07:35:00,
2013-08-17 03:41:00,57.3,52.8,30.17,NNW,338,0.0,0.0,85,0.00,,,0.00,WUHU216HW,2013-08-17 07:41:00,
2013-08-17 03:47:00,57.3,52.8,30.17,NNW,338,0.0,0.0,85,0.00,,,0.00,WUHU216HW,2013-08-17 07:47:00,
2013-08-17 03:52:00,57.3,52.8,30.17,NNW,338,0.0,0.0,85,0.00,,,0.00,WUHU216HW,2013-08-17 07:52:00,
2013-08-17 03:58:00,57.3,53.2,30.18,NNW,338,0.0,0.0,86,0.00,,,0.00,WUHU216HW,2013-08-17 07:58:00,
2013-08-17 04:03:00,57.0,52.8,30.18,NNW,338,0.0,0.0,86,0.00,,,0.00,WUHU216HW,2013-08-17 08:03:00,
2013-08-17 04:08:00,57.0,52.8,30.18,NNW,338,0.0,0.0,86,0.00,,,0.00,WUHU216HW,2013-08-17 08:08:00,
2013-08-17 04:13:00,57.0,52.8,30.18,NNW,338,0.0,0.0,86,0.00,,,0.00,WUHU216HW,2013-08-17 08:13:00,
2013-08-17 04:19:00,57.0,52.8,30.18,NNW,338,0.0,0.0,86,0.00,,,0.00,WUHU216HW,2013-08-17 08:19:00,
2013-08-17 04:24:00,57.0,52.8,30.18,NNW,338,0.0,0.0,86,0.00,,,0.00,WUHU216HW,2013-08-17 08:24:00,
2013-08-17 04:29:00,57.0,52.8,30.18,NNW,338,0.0,0.0,86,0.00,,,0.00,WUHU216HW,2013-08-17 08:29:00,
2013-08-17 04:35:00,57.0,52.8,30.18,NNW,338,0.0,0.0,86,0.00,,,0.00,WUHU216HW,2013-08-17 08:35:00,
2013-08-17 04:40:00,56.8,52.6,30.18,NNW,338,0.0,0.0,86,0.00,,,0.00,WUHU216HW,2013-08-17 08:40:00,
2013-08-17 04:45:00,56.8,52.6,30.18,NNW,338,0.0,0.0,86,0.00,,,0.00,WUHU216HW,2013-08-17 08:45:00,
2013-08-17 04:50:00,56.8,52.6,30.18,NNW,338,0.0,0.0,86,0.00,,,0.00,WUHU216HW,2013-08-17 08:50:00,
2013-08-17 04:56:00,56.4,52.3,30.18,NNW,338,0.0,0.0,86,0.00,,,0.00,WUHU216HW,2013-08-17 08:56:00,
2013-08-17 05:02:00,56.4,52.3,30.18,NNW,338,0.0,0.0,86,0.00,,,0.00,WUHU216HW,2013-08-17 09:02:00,
2013-08-17 05:07:00,56.4,52.3,30.19,NNW,338,0.0,0.0,86,0.00,,,0.00,WUHU216HW,2013-08-17 09:07:00,
2013-08-17 05:12:00,56.4,52.3,30.19,NNW,338,0.0,0.0,86,0.00,,,0.00,WUHU216HW,2013-08-17 09:12:00,
2013-08-17 05:17:00,56.3,52.4,30.19,NNW,338,0.0,0.0,87,0.00,,,0.00,WUHU216HW,2013-08-17 09:17:00,
2013-08-17 05:23:00,56.3,52.4,30.19,NNW,338,0.0,0.0,87,0.00,,,0.00,WUHU216HW,2013-08-17 09:23:00,
2013-08-17 05:29:00,56.1,52.2,30.19,NNW,338,0.0,0.0,87,0.00,,,0.00,WUHU216HW,2013-08-17 09:29:00,
2013-08-17 05:34:00,56.1,52.2,30.20,NNW,338,0.0,0.0,87,0.00,,,0.00,WUHU216HW,2013-08-17 09:34:00,
2013-08-17 05:40:00,56.1,52.2,30.19,NNW,338,0.0,0.0,87,0.00,,,0.00,WUHU216HW,2013-08-17 09:40:00,
2013-08-17 05:45:00,55.9,52.0,30.20,NNW,338,0.0,0.0,87,0.00,,,0.00,WUHU216HW,2013-08-17 09:45:00,
2013-08-17 05:50:00,55.9,52.0,30.19,NNW,338,0.0,0.0,87,0.00,,,0.00,WUHU216HW,2013-08-17 09:50:00,
2013-08-17 05:56:00,55.9,52.0,30.20,NNW,338,0.0,0.0,87,0.00,,,0.00,WUHU216HW,2013-08-17 09:56:00,
2013-08-17 06:01:00,55.9,52.0,30.19,NNW,338,0.0,0.0,87,0.00,,,0.00,WUHU216HW,2013-08-17 10:01:00,
2013-08-17 06:07:00,55.7,51.9,30.20,NNW,338,0.0,0.0,87,0.00,,,0.00,WUHU216HW,2013-08-17 10:07:00,
2013-08-17 06:13:00,55.5,51.7,30.19,NNW,338,0.0,0.0,87,0.00,,,0.00,WUHU216HW,2013-08-17 10:13:00,
2013-08-17 06:18:00,55.5,51.7,30.20,NNW,338,0.0,0.0,87,0.00,,,0.00,WUHU216HW,2013-08-17 10:18:00,
2013-08-17 06:24:00,55.4,51.5,30.19,NNW,338,0.0,0.0,87,0.00,,,0.00,WUHU216HW,2013-08-17 10:24:00,
2013-08-17 06:29:00,55.2,51.3,30.20,NNW,338,0.0,0.0,87,0.00,,,0.00,WUHU216HW,2013-08-17 10:29:00,
2013-08-17 06:35:00,55.2,51.3,30.20,NNW,338,0.0,0.0,87,0.00,,,0.00,WUHU216HW,2013-08-17 10:35:00,
2013-08-17 06:40:00,55.2,51.3,30.20,NNW,338,0.0,0.0,87,0.00,,,0.00,WUHU216HW,2013-08-17 10:40:00,
2013-08-17 06:46:00,55.2,51.3,30.21,NNW,338,0.0,0.0,87,0.00,,,0.00,WUHU216HW,2013-08-17 10:46:00,
2013-08-17 06:52:00,55.0,51.5,30.20,NNW,338,0.0,0.0,88,0.00,,,0.00,WUHU216HW,2013-08-17 10:52:00,
2013-08-17 06:58:00,55.2,51.6,30.21,NNW,338,0.0,0.0,88,0.00,,,0.00,WUHU216HW,2013-08-17 10:58:00,
2013-08-17 07:03:00,55.0,51.5,30.21,NNW,338,0.0,0.0,88,0.00,,,0.00,WUHU216HW,2013-08-17 11:03:00,
2013-08-17 07:09:00,55.2,51.6,30.21,NNW,338,0.0,0.0,88,0.00,,,0.00,WUHU216HW,2013-08-17 11:09:00,
2013-08-17 07:15:00,55.2,51.6,30.21,NNW,338,0.0,0.0,88,0.00,,,0.00,WUHU216HW,2013-08-17 11:15:00,
2013-08-17 07:20:00,55.4,51.8,30.21,NNW,338,0.0,0.0,88,0.00,,,0.00,WUHU216HW,2013-08-17 11:20:00,
2013-08-17 07:26:00,55.5,52.0,30.21,NNW,338,0.0,0.0,88,0.00,,,0.00,WUHU216HW,2013-08-17 11:26:00,
2013-08-17 07:31:00,55.5,52.0,30.21,NNW,338,0.0,0.0,88,0.00,,,0.00,WUHU216HW,2013-08-17 11:31:00,
2013-08-17 07:36:00,55.9,52.4,30.22,NNW,338,0.0,0.0,88,0.00,,,0.00,WUHU216HW,2013-08-17 11:36:00,
2013-08-17 07:42:00,55.9,52.4,30.22,NNW,338,0.0,0.0,88,0.00,,,0.00,WUHU216HW,2013-08-17 11:42:00,
2013-08-17 07:48:00,56.3,52.7,30.22,NNW,338,0.0,0.0,88,0.00,,,0.00,WUHU216HW,2013-08-17 11:48:00,
2013-08-17 07:54:00,56.6,53.1,30.22,NNW,338,0.0,0.0,88,0.00,,,0.00,WUHU216HW,2013-08-17 11:54:00,
2013-08-17 08:00:00,57.0,53.8,30.22,NNW,338,0.0,0.0,89,0.00,,,0.00,WUHU216HW,2013-08-17 12:00:00,
2013-08-17 08:05:00,57.3,54.1,30.22,NNW,338,0.0,0.0,89,0.00,,,0.00,WUHU216HW,2013-08-17 12:05:00,
2013-08-17 08:10:00,57.7,54.5,30.23,NNW,338,0.0,0.0,89,0.00,,,0.00,WUHU216HW,2013-08-17 12:10:00,
2013-08-17 08:16:00,58.2,55.0,30.23,NNW,338,0.0,0.0,89,0.00,,,0.00,WUHU216HW,2013-08-17 12:16:00,
2013-08-17 08:21:00,58.8,55.9,30.23,NNW,338,0.0,0.0,90,0.00,,,0.00,WUHU216HW,2013-08-17 12:21:00,
2013-08-17 08:27:00,58.8,55.9,30.23,NNW,338,0.0,0.0,90,0.00,,,0.00,WUHU216HW,2013-08-17 12:27:00,
2013-08-17 08:32:00,59.7,56.8,30.23,NNW,338,0.0,0.0,90,0.00,,,0.00,WUHU216HW,2013-08-17 12:32:00,
2013-08-17 08:38:00,60.4,57.5,30.23,NNW,338,0.0,0.0,90,0.00,,,0.00,WUHU216HW,2013-08-17 12:38:00,
2013-08-17 08:43:00,60.6,57.7,30.22,NNW,338,0.0,0.0,90,0.00,,,0.00,WUHU216HW,2013-08-17 12:43:00,
2013-08-17 08:49:00,61.5,58.6,30.22,NNW,338,0.0,0.0,90,0.00,,,0.00,WUHU216HW,2013-08-17 12:49:00,
2013-08-17 08:54:00,62.0,59.1,30.22,NNW,338,0.0,0.0,90,0.00,,,0.00,WUHU216HW,2013-08-17 12:54:00,
2013-08-17 09:00:00,62.6,59.3,30.22,NNW,338,0.0,0.0,89,0.00,,,0.00,WUHU216HW,2013-08-17 13:00:00,
2013-08-17 09:05:00,62.9,59.3,30.22,NNW,338,0.0,0.0,88,0.00,,,0.00,WUHU216HW,2013-08-17 13:05:00,
2013-08-17 09:11:00,63.5,59.9,30.22,NNW,338,0.0,0.0,88,0.00,,,0.00,WUHU216HW,2013-08-17 13:11:00,
2013-08-17 09:17:00,64.5,60.9,30.22,NNW,338,0.0,0.0,88,0.00,,,0.00,WUHU216HW,2013-08-17 13:17:00,
2013-08-17 09:22:00,65.1,61.1,30.22,NNW,338,0.0,0.0,87,0.00,,,0.00,WUHU216HW,2013-08-17 13:22:00,
2013-08-17 09:27:00,65.4,61.1,30.22,NNW,338,0.0,0.0,86,0.00,,,0.00,WUHU216HW,2013-08-17 13:27:00,
2013-08-17 09:33:00,66.0,61.6,30.22,NNW,338,0.0,0.0,86,0.00,,,0.00,WUHU216HW,2013-08-17 13:33:00,
2013-08-17 09:39:00,66.7,61.7,30.22,NNW,338,0.0,0.0,84,0.00,,,0.00,WUHU216HW,2013-08-17 13:39:00,
2013-08-17 09:45:00,67.2,62.2,30.22,NNW,338,0.0,0.0,84,0.00,,,0.00,WUHU216HW,2013-08-17 13:45:00,
2013-08-17 09:51:00,68.1,62.5,30.22,North,0,0.0,0.0,82,0.00,,,0.00,WUHU216HW,2013-08-17 13:51:00,
2013-08-17 09:57:00,68.5,62.1,30.22,North,0,0.0,0.0,80,0.00,,,0.00,WUHU216HW,2013-08-17 13:57:00,
2013-08-17 10:03:00,69.0,62.2,30.21,North,0,0.0,0.0,79,0.00,,,0.00,WUHU216HW,2013-08-17 14:03:00,
2013-08-17 10:08:00,69.6,62.7,30.22,North,0,0.0,0.0,79,0.00,,,0.00,WUHU216HW,2013-08-17 14:08:00,
2013-08-17 10:13:00,70.1,63.3,30.22,North,0,0.0,0.0,79,0.00,,,0.00,WUHU216HW,2013-08-17 14:13:00,
2013-08-17 10:19:00,70.7,63.0,30.21,North,0,0.0,0.0,77,0.00,,,0.00,WUHU216HW,2013-08-17 14:19:00,
2013-08-17 10:24:00,71.0,63.0,30.21,North,0,0.0,0.0,76,0.00,,,0.00,WUHU216HW,2013-08-17 14:24:00,
2013-08-17 10:29:00,71.2,63.2,30.22,North,0,0.0,0.0,76,0.00,,,0.00,WUHU216HW,2013-08-17 14:29:00,
2013-08-17 10:35:00,71.7,63.7,30.22,North,0,0.0,0.0,76,0.00,,,0.00,WUHU216HW,2013-08-17 14:35:00,
2013-08-17 10:41:00,72.1,63.3,30.21,North,0,0.0,0.0,74,0.00,,,0.00,WUHU216HW,2013-08-17 14:41:00,
2013-08-17 10:47:00,72.5,63.3,30.21,North,0,0.0,0.0,73,0.00,,,0.00,WUHU216HW,2013-08-17 14:47:00,
2013-08-17 10:52:00,72.6,63.1,30.21,North,0,0.0,0.0,72,0.00,,,0.00,WUHU216HW,2013-08-17 14:52:00,
2013-08-17 10:57:00,73.2,63.9,30.22,North,0,0.0,0.0,73,0.00,,,0.00,WUHU216HW,2013-08-17 14:57:00,
2013-08-17 11:03:00,73.7,64.2,30.22,North,0,0.0,0.0,72,0.00,,,0.00,WUHU216HW,2013-08-17 15:03:00,
2013-08-17 11:08:00,74.1,64.1,30.23,North,0,0.0,0.0,71,0.00,,,0.00,WUHU216HW,2013-08-17 15:08:00,
2013-08-17 11:13:00,74.6,64.2,30.23,North,0,0.0,0.0,70,0.00,,,0.00,WUHU216HW,2013-08-17 15:13:00,
2013-08-17 11:18:00,74.8,63.1,30.22,North,0,0.0,0.0,67,0.00,,,0.00,WUHU216HW,2013-08-17 15:18:00,
2013-08-17 11:24:00,75.0,63.7,30.22,North,0,0.0,0.0,68,0.00,,,0.00,WUHU216HW,2013-08-17 15:24:00,
2013-08-17 11:29:00,75.3,64.0,30.22,North,0,0.0,0.0,68,0.00,,,0.00,WUHU216HW,2013-08-17 15:29:00,
2013-08-17 11:35:00,75.5,63.8,30.21,NNW,338,0.0,0.0,67,0.00,,,0.00,WUHU216HW,2013-08-17 15:35:00,
2013-08-17 11:40:00,75.5,62.9,30.21,NNW,338,0.0,0.0,65,0.00,,,0.00,WUHU216HW,2013-08-17 15:40:00,
2013-08-17 11:45:00,75.7,63.5,30.21,NNW,338,0.0,0.0,66,0.00,,,0.00,WUHU216HW,2013-08-17 15:45:00,
2013-08-17 11:51:00,76.1,63.0,30.21,NNW,338,0.0,0.0,64,0.00,,,0.00,WUHU216HW,2013-08-17 15:51:00,
2013-08-17 11:56:00,76.2,62.7,30.21,NNW,338,0.0,0.0,63,0.00,,,0.00,WUHU216HW,2013-08-17 15:56:00,
2013-08-17 12:02:00,76.8,62.7,30.21,NNW,338,0.0,0.0,62,0.00,,,0.00,WUHU216HW,2013-08-17 16:02:00,
2013-08-17 12:08:00,77.5,63.4,30.21,NNW,338,0.0,0.0,62,0.00,,,0.00,WUHU216HW,2013-08-17 16:08:00,
2013-08-17 12:14:00,77.9,63.3,30.21,North,0,0.0,0.0,61,0.00,,,0.00,WUHU216HW,2013-08-17 16:14:00,
2013-08-17 12:19:00,78.6,63.6,30.21,North,0,0.0,0.0,60,0.00,,,0.00,WUHU216HW,2013-08-17 16:19:00,
2013-08-17 12:25:00,78.8,62.8,30.21,NE,45,0.0,0.0,58,0.00,,,0.00,WUHU216HW,2013-08-17 16:25:00,
2013-08-17 12:31:00,78.9,63.5,30.22,ENE,68,0.0,0.0,59,0.00,,,0.00,WUHU216HW,2013-08-17 16:31:00,
2013-08-17 12:36:00,79.7,64.1,30.22,ENE,68,0.0,0.0,59,0.00,,,0.00,WUHU216HW,2013-08-17 16:36:00,
2013-08-17 12:42:00,80.4,64.6,30.21,ENE,68,0.0,0.0,57,0.00,,,0.00,WUHU216HW,2013-08-17 16:42:00,
2013-08-17 12:48:00,80.4,63.7,30.21,ENE,68,0.0,0.0,57,0.00,,,0.00,WUHU216HW,2013-08-17 16:48:00,
2013-08-17 12:54:00,80.7,64.0,30.21,NW,315,0.0,0.0,57,0.00,,,0.00,WUHU216HW,2013-08-17 16:54:00,
2013-08-17 13:00:00,81.1,63.8,30.20,WNW,293,0.0,0.0,56,0.00,,,0.00,WUHU216HW,2013-08-17 17:00:00,
2013-08-17 13:05:00,81.3,63.5,30.20,NW,315,0.0,0.0,55,0.00,,,0.00,WUHU216HW,2013-08-17 17:05:00,
2013-08-17 13:11:00,81.1,63.3,30.20,North,0,0.0,0.0,55,0.00,,,0.00,WUHU216HW,2013-08-17 17:11:00,
2013-08-17 13:17:00,81.1,62.8,30.20,South,180,0.0,0.0,54,0.00,,,0.00,WUHU216HW,2013-08-17 17:17:00,
2013-08-17 13:22:00,81.6,63.3,30.20,SSE,158,0.0,0.0,54,0.00,,,0.00,WUHU216HW,2013-08-17 17:22:00,
2013-08-17 13:27:00,82.2,63.2,30.20,NE,45,0.0,0.0,53,0.00,,,0.00,WUHU216HW,2013-08-17 17:27:00,
2013-08-17 13:32:00,82.0,63.1,30.20,NE,45,0.0,0.0,53,0.00,,,0.00,WUHU216HW,2013-08-17 17:32:00,
2013-08-17 13:38:00,82.0,63.1,30.20,NE,45,0.0,0.0,53,0.00,,,0.00,WUHU216HW,2013-08-17 17:38:00,
2013-08-17 13:43:00,82.0,62.6,30.19,NNE,23,0.0,0.0,52,0.00,,,0.00,WUHU216HW,2013-08-17 17:43:00,
2013-08-17 13:49:00,82.0,62.0,30.20,NE,45,0.0,0.0,51,0.00,,,0.00,WUHU216HW,2013-08-17 17:49:00,
2013-08-17 13:54:00,82.0,62.6,30.20,ENE,68,0.0,0.0,52,0.00,,,0.00,WUHU216HW,2013-08-17 17:54:00,
2013-08-17 14:00:00,82.2,62.2,30.19,East,90,0.0,0.0,51,0.00,,,0.00,WUHU216HW,2013-08-17 18:00:00,
2013-08-17 14:05:00,82.4,62.9,30.19,East,90,0.0,0.0,52,0.00,,,0.00,WUHU216HW,2013-08-17 18:05:00,
2013-08-17 14:10:00,82.5,63.1,30.19,ESE,113,0.0,0.0,52,0.00,,,0.00,WUHU216HW,2013-08-17 18:10:00,
2013-08-17 14:16:00,83.3,63.9,30.20,ESE,113,0.0,0.0,53,0.00,,,0.00,WUHU216HW,2013-08-17 18:16:00,
2013-08-17 14:21:00,83.6,64.7,30.20,SE,135,0.0,0.0,53,0.00,,,0.00,WUHU216HW,2013-08-17 18:21:00,
2013-08-17 14:26:00,83.8,64.3,30.19,NE,45,0.0,0.0,52,0.00,,,0.00,WUHU216HW,2013-08-17 18:26:00,
2013-08-17 14:32:00,83.4,64.5,30.20,NE,45,0.0,0.0,53,0.00,,,0.00,WUHU216HW,2013-08-17 18:32:00,
2013-08-17 14:37:00,83.6,64.1,30.20,NE,45,0.0,0.0,52,0.00,,,0.00,WUHU216HW,2013-08-17 18:37:00,
2013-08-17 14:43:00,83.8,64.3,30.20,East,90,0.0,0.0,52,0.00,,,0.00,WUHU216HW,2013-08-17 18:43:00,
2013-08-17 14:48:00,83.8,63.8,30.20,ENE,68,0.0,0.0,51,0.00,,,0.00,WUHU216HW,2013-08-17 18:48:00,
2013-08-17 14:54:00,83.6,63.6,30.20,ENE,68,0.0,0.0,51,0.00,,,0.00,WUHU216HW,2013-08-17 18:54:00,
2013-08-17 15:00:00,83.4,62.9,30.19,ENE,68,0.0,0.0,50,0.00,,,0.00,WUHU216HW,2013-08-17 19:00:00,
2013-08-17 15:06:00,83.1,63.1,30.19,ENE,68,0.0,0.0,51,0.00,,,0.00,WUHU216HW,2013-08-17 19:06:00,
2013-08-17 15:12:00,83.1,63.1,30.19,WSW,248,0.0,0.0,51,0.00,,,0.00,WUHU216HW,2013-08-17 19:12:00,
2013-08-17 15:17:00,83.4,65.0,30.19,NE,45,0.0,0.0,54,0.00,,,0.00,WUHU216HW,2013-08-17 19:17:00,
2013-08-17 15:23:00,84.0,64.5,30.19,NE,45,0.0,0.0,52,0.00,,,0.00,WUHU216HW,2013-08-17 19:23:00,
2013-08-17 15:28:00,84.0,64.0,30.18,NE,45,0.0,0.0,51,0.00,,,0.00,WUHU216HW,2013-08-17 19:28:00,
2013-08-17 15:34:00,83.8,64.3,30.18,NE,45,0.0,0.0,52,0.00,,,0.00,WUHU216HW,2013-08-17 19:34:00,
2013-08-17 15:39:00,83.8,64.3,30.18,NE,45,0.0,0.0,52,0.00,,,0.00,WUHU216HW,2013-08-17 19:39:00,
2013-08-17 15:44:00,83.8,64.3,30.19,NE,45,0.0,0.0,52,0.00,,,0.00,WUHU216HW,2013-08-17 19:44:00,
2013-08-17 15:49:00,83.4,64.0,30.19,NE,45,0.0,0.0,52,0.00,,,0.00,WUHU216HW,2013-08-17 19:49:00,
2013-08-17 15:55:00,83.4,64.0,30.18,NE,45,0.0,0.0,52,0.00,,,0.00,WUHU216HW,2013-08-17 19:55:00,
2013-08-17 16:00:00,83.3,63.8,30.18,NNW,338,0.0,0.0,52,0.00,,,0.00,WUHU216HW,2013-08-17 20:00:00,
2013-08-17 16:05:00,83.3,64.3,30.18,NE,45,0.0,0.0,53,0.00,,,0.00,WUHU216HW,2013-08-17 20:05:00,
2013-08-17 16:10:00,83.8,65.4,30.18,North,0,0.0,0.0,54,0.00,,,0.00,WUHU216HW,2013-08-17 20:10:00,
2013-08-17 16:15:00,84.0,66.1,30.18,WSW,248,0.0,0.0,55,0.00,,,0.00,WUHU216HW,2013-08-17 20:15:00,
2013-08-17 16:20:00,84.3,65.9,30.18,NNE,23,0.0,0.0,54,0.00,,,0.00,WUHU216HW,2013-08-17 20:20:00,
2013-08-17 16:26:00,84.0,65.0,30.18,NE,45,0.0,0.0,53,0.00,,,0.00,WUHU216HW,2013-08-17 20:26:00,
2013-08-17 16:31:00,83.8,64.8,30.18,NE,45,0.0,0.0,53,0.00,,,0.00,WUHU216HW,2013-08-17 20:31:00,
2013-08-17 16:37:00,83.4,64.5,30.18,NNE,23,0.0,0.0,53,0.00,,,0.00,WUHU216HW,2013-08-17 20:37:00,
2013-08-17 16:42:00,82.9,64.5,30.18,NNE,23,0.0,0.0,54,0.00,,,0.00,WUHU216HW,2013-08-17 20:42:00,
2013-08-17 16:47:00,82.5,64.6,30.18,NNE,23,0.0,0.0,55,0.00,,,0.00,WUHU216HW,2013-08-17 20:47:00,
2013-08-17 16:53:00,82.4,65.0,30.18,NNE,23,0.0,0.0,56,0.00,,,0.00,WUHU216HW,2013-08-17 20:53:00,
2013-08-17 16:58:00,82.2,64.8,30.18,NNE,23,0.0,0.0,56,0.00,,,0.00,WUHU216HW,2013-08-17 20:58:00,
2013-08-17 17:04:00,81.6,64.3,30.18,NNE,23,0.0,0.0,56,0.00,,,0.00,WUHU216HW,2013-08-17 21:04:00,
2013-08-17 17:10:00,81.3,64.5,30.18,NNE,23,0.0,0.0,57,0.00,,,0.00,WUHU216HW,2013-08-17 21:10:00,
2013-08-17 17:15:00,81.1,64.4,30.19,NNE,23,0.0,0.0,57,0.00,,,0.00,WUHU216HW,2013-08-17 21:15:00,
2013-08-17 17:20:00,80.6,63.9,30.19,NNE,23,0.0,0.0,57,0.00,,,0.00,WUHU216HW,2013-08-17 21:20:00,
2013-08-17 17:26:00,80.2,64.1,30.19,NNE,23,0.0,0.0,58,0.00,,,0.00,WUHU216HW,2013-08-17 21:26:00,
2013-08-17 17:32:00,79.7,64.1,30.19,NNE,23,0.0,0.0,59,0.00,,,0.00,WUHU216HW,2013-08-17 21:32:00,
2013-08-17 17:38:00,79.5,64.9,30.18,NNE,23,0.0,0.0,61,0.00,,,0.00,WUHU216HW,2013-08-17 21:38:00,
2013-08-17 17:43:00,79.3,64.7,30.18,NNE,23,0.0,0.0,61,0.00,,,0.00,WUHU216HW,2013-08-17 21:43:00,
2013-08-17 17:49:00,78.9,64.4,30.19,NNE,23,0.0,0.0,61,0.00,,,0.00,WUHU216HW,2013-08-17 21:49:00,
2013-08-17 17:55:00,78.6,64.9,30.18,NNE,23,0.0,0.0,63,0.00,,,0.00,WUHU216HW,2013-08-17 21:55:00,
2013-08-17 18:00:00,78.4,64.7,30.19,NNE,23,0.0,0.0,63,0.00,,,0.00,WUHU216HW,2013-08-17 22:00:00,
2013-08-17 18:06:00,77.9,64.2,30.18,NNE,23,0.0,0.0,63,0.00,,,0.00,WUHU216HW,2013-08-17 22:06:00,
2013-08-17 18:11:00,77.7,64.5,30.19,NNE,23,0.0,0.0,64,0.00,,,0.00,WUHU216HW,2013-08-17 22:11:00,
2013-08-17 18:17:00,77.3,64.2,30.19,NNE,23,0.0,0.0,64,0.00,,,0.00,WUHU216HW,2013-08-17 22:17:00,
2013-08-17 18:22:00,77.1,64.4,30.19,NNE,23,0.0,0.0,65,0.00,,,0.00,WUHU216HW,2013-08-17 22:22:00,
2013-08-17 18:27:00,76.6,63.9,30.19,NNE,23,0.0,0.0,65,0.00,,,0.00,WUHU216HW,2013-08-17 22:27:00,
2013-08-17 18:33:00,76.4,64.2,30.19,NNE,23,0.0,0.0,66,0.00,,,0.00,WUHU216HW,2013-08-17 22:33:00,
2013-08-17 18:38:00,76.1,64.3,30.19,NNE,23,0.0,0.0,67,0.00,,,0.00,WUHU216HW,2013-08-17 22:38:00,
2013-08-17 18:44:00,75.9,64.1,30.19,NNE,23,0.0,0.0,67,0.00,,,0.00,WUHU216HW,2013-08-17 22:44:00,
2013-08-17 18:50:00,75.7,63.9,30.19,NNE,23,0.0,0.0,67,0.00,,,0.00,WUHU216HW,2013-08-17 22:50:00,
2013-08-17 18:55:00,75.3,63.6,30.19,NNE,23,0.0,0.0,67,0.00,,,0.00,WUHU216HW,2013-08-17 22:55:00,
2013-08-17 19:00:00,75.0,63.7,30.18,NNE,23,0.0,0.0,68,0.00,,,0.00,WUHU216HW,2013-08-17 23:00:00,
2013-08-17 19:06:00,74.4,63.2,30.18,NNE,23,0.0,0.0,68,0.00,,,0.00,WUHU216HW,2013-08-17 23:06:00,
2013-08-17 19:12:00,73.9,63.1,30.19,NNE,23,0.0,0.0,69,0.00,,,0.00,WUHU216HW,2013-08-17 23:12:00,
2013-08-17 19:18:00,73.5,62.8,30.18,NNE,23,0.0,0.0,69,0.00,,,0.00,WUHU216HW,2013-08-17 23:18:00,
2013-08-17 19:23:00,73.2,62.5,30.18,NNE,23,0.0,0.0,69,0.00,,,0.00,WUHU216HW,2013-08-17 23:23:00,
2013-08-17 19:28:00,73.0,62.7,30.18,NNE,23,0.0,0.0,70,0.00,,,0.00,WUHU216HW,2013-08-17 23:28:00,
2013-08-17 19:34:00,72.5,62.2,30.18,North,0,0.0,0.0,70,0.00,,,0.00,WUHU216HW,2013-08-17 23:34:00,
2013-08-17 19:39:00,72.3,62.0,30.18,North,0,0.0,0.0,70,0.00,,,0.00,WUHU216HW,2013-08-17 23:39:00,
2013-08-17 19:44:00,71.7,61.5,30.18,North,0,0.0,0.0,70,0.00,,,0.00,WUHU216HW,2013-08-17 23:44:00,
2013-08-17 19:49:00,71.4,61.5,30.18,North,0,0.0,0.0,71,0.00,,,0.00,WUHU216HW,2013-08-17 23:49:00,
2013-08-17 19:55:00,71.2,61.3,30.18,North,0,0.0,0.0,71,0.00,,,0.00,WUHU216HW,2013-08-17 23:55:00,
2013-08-17 20:00:00,70.8,61.3,30.18,North,0,0.0,0.0,72,0.00,,,0.00,WUHU216HW,2013-08-18 00:00:00,
2013-08-17 20:06:00,70.3,60.8,30.19,North,0,0.0,0.0,72,0.00,,,0.00,WUHU216HW,2013-08-18 00:06:00,
2013-08-17 20:12:00,69.9,60.4,30.18,North,0,0.0,0.0,72,0.00,,,0.00,WUHU216HW,2013-08-18 00:12:00,
2013-08-17 20:18:00,69.6,60.5,30.19,North,0,0.0,0.0,72,0.00,,,0.00,WUHU216HW,2013-08-18 00:18:00,
2013-08-17 20:23:00,69.2,60.1,30.19,North,0,0.0,0.0,73,0.00,,,0.00,WUHU216HW,2013-08-18 00:23:00,
2013-08-17 20:29:00,68.9,59.8,30.18,North,0,0.0,0.0,73,0.00,,,0.00,WUHU216HW,2013-08-18 00:29:00,
2013-08-17 20:34:00,68.5,59.5,30.18,North,0,0.0,0.0,73,0.00,,,0.00,WUHU216HW,2013-08-18 00:34:00,
2013-08-17 20:40:00,68.3,59.7,30.18,North,0,0.0,0.0,74,0.00,,,0.00,WUHU216HW,2013-08-18 00:40:00,
2013-08-17 20:45:00,68.1,59.5,30.18,North,0,0.0,0.0,74,0.00,,,0.00,WUHU216HW,2013-08-18 00:45:00,
2013-08-17 20:51:00,67.8,59.2,30.18,North,0,0.0,0.0,74,0.00,,,0.00,WUHU216HW,2013-08-18 00:51:00,
2013-08-17 20:57:00,67.6,59.4,30.18,North,0,0.0,0.0,75,0.00,,,0.00,WUHU216HW,2013-08-18 00:57:00,
2013-08-17 21:03:00,67.2,59.0,30.18,North,0,0.0,0.0,75,0.00,,,0.00,WUHU216HW,2013-08-18 01:03:00,
2013-08-17 21:09:00,67.1,58.9,30.19,North,0,0.0,0.0,75,0.00,,,0.00,WUHU216HW,2013-08-18 01:09:00,
2013-08-17 21:14:00,66.9,58.7,30.18,North,0,0.0,0.0,75,0.00,,,0.00,WUHU216HW,2013-08-18 01:14:00,
2013-08-17 21:19:00,66.7,58.9,30.18,North,0,0.0,0.0,76,0.00,,,0.00,WUHU216HW,2013-08-18 01:19:00,
2013-08-17 21:25:00,66.7,58.9,30.18,North,0,0.0,0.0,76,0.00,,,0.00,WUHU216HW,2013-08-18 01:25:00,
2013-08-17 21:31:00,66.5,58.7,30.19,North,0,0.0,0.0,76,0.00,,,0.00,WUHU216HW,2013-08-18 01:31:00,
2013-08-17 21:36:00,66.3,58.5,30.18,North,0,0.0,0.0,76,0.00,,,0.00,WUHU216HW,2013-08-18 01:36:00,
2013-08-17 21:42:00,66.2,58.7,30.18,North,0,0.0,0.0,77,0.00,,,0.00,WUHU216HW,2013-08-18 01:42:00,
2013-08-17 21:47:00,66.2,58.7,30.19,North,0,0.0,0.0,77,0.00,,,0.00,WUHU216HW,2013-08-18 01:47:00,
2013-08-17 21:53:00,66.0,58.5,30.19,North,0,0.0,0.0,77,0.00,,,0.00,WUHU216HW,2013-08-18 01:53:00,
2013-08-17 21:59:00,66.0,58.5,30.19,North,0,0.0,0.0,77,0.00,,,0.00,WUHU216HW,2013-08-18 01:59:00,
2013-08-17 22:05:00,65.8,58.4,30.19,North,0,0.0,0.0,77,0.00,,,0.00,WUHU216HW,2013-08-18 02:05:00,
2013-08-17 22:10:00,65.8,58.4,30.19,North,0,0.0,0.0,77,0.00,,,0.00,WUHU216HW,2013-08-18 02:10:00,
2013-08-17 22:15:00,65.6,58.2,30.19,North,0,0.0,0.0,77,0.00,,,0.00,WUHU216HW,2013-08-18 02:15:00,
2013-08-17 22:21:00,65.4,58.4,30.19,North,0,0.0,0.0,78,0.00,,,0.00,WUHU216HW,2013-08-18 02:21:00,
2013-08-17 22:27:00,65.3,58.2,30.19,North,0,0.0,0.0,78,0.00,,,0.00,WUHU216HW,2013-08-18 02:27:00,
2013-08-17 22:33:00,65.3,58.2,30.19,North,0,0.0,0.0,78,0.00,,,0.00,WUHU216HW,2013-08-18 02:33:00,
2013-08-17 22:38:00,65.1,58.0,30.19,North,0,0.0,0.0,78,0.00,,,0.00,WUHU216HW,2013-08-18 02:38:00,
2013-08-17 22:44:00,65.1,58.4,30.19,North,0,0.0,0.0,79,0.00,,,0.00,WUHU216HW,2013-08-18 02:44:00,
2013-08-17 22:49:00,65.1,58.4,30.19,North,0,0.0,0.0,79,0.00,,,0.00,WUHU216HW,2013-08-18 02:49:00,
2013-08-17 22:55:00,64.9,58.2,30.19,North,0,0.0,0.0,79,0.00,,,0.00,WUHU216HW,2013-08-18 02:55:00,
2013-08-17 23:01:00,64.7,58.0,30.19,North,0,0.0,0.0,79,0.00,,,0.00,WUHU216HW,2013-08-18 03:01:00,
2013-08-17 23:06:00,64.7,58.0,30.18,North,0,0.0,0.0,79,0.00,,,0.00,WUHU216HW,2013-08-18 03:06:00,
2013-08-17 23:12:00,64.5,57.9,30.18,North,0,0.0,0.0,79,0.00,,,0.00,WUHU216HW,2013-08-18 03:12:00,
2013-08-17 23:18:00,64.5,57.9,30.18,North,0,0.0,0.0,79,0.00,,,0.00,WUHU216HW,2013-08-18 03:18:00,
2013-08-17 23:23:00,64.5,58.2,30.18,North,0,0.0,0.0,80,0.00,,,0.00,WUHU216HW,2013-08-18 03:23:00,
2013-08-17 23:28:00,64.4,58.1,30.18,North,0,0.0,0.0,80,0.00,,,0.00,WUHU216HW,2013-08-18 03:28:00,
2013-08-17 23:34:00,64.2,57.9,30.18,North,0,0.0,0.0,80,0.00,,,0.00,WUHU216HW,2013-08-18 03:34:00,
2013-08-17 23:39:00,64.2,57.9,30.18,North,0,0.0,0.0,80,0.00,,,0.00,WUHU216HW,2013-08-18 03:39:00,
2013-08-17 23:44:00,64.2,57.9,30.18,North,0,0.0,0.0,80,0.00,,,0.00,WUHU216HW,2013-08-18 03:44:00,
2013-08-17 23:49:00,64.2,57.9,30.18,North,0,0.0,0.0,80,0.00,,,0.00,WUHU216HW,2013-08-18 03:49:00,
2013-08-17 23:55:00,64.2,57.9,30.18,North,0,0.0,0.0,80,0.00,,,0.00,WUHU216HW,2013-08-18 03:55:00,